Temp
14 13 13 13 13 13 13 13 14 14 14 14 14 14 14 14 14 13 13 13 13 12 12 13 13 13 13 13 13 13 12 12 13 13 13 13 13 14 14 14 14 14 14 14 14 14 14 14 14 14 14 14 14 14 14 14 14 14 14 14 14 14 14 14 14 14 14 14 13
14 13 13 13 13 13 13 13 13 14 14 14 14 14 14 13 13 13 13 13 13 12 12 13 13 13 13 13 13 12 12 12 12 13 13 13 13 14 14 14 14 14 14 14 14 14 14 14 14 14 14 14 14 14 14 14 14 14 14 14 14 14 14 14 14 14 13 13 13
13 13 13 13 13 13 13 13 13 13 13 13 14 13 13 13 13 13 13 12 12 12 12 12 13 13 13 13 13 12 12 12 12 12 12 12 13 14 14 14 14 14 14 14 14 14 14 14 14 14 14 14 14 14 14 14 14 14 14 14 14 14 14 14 14 13 13 13 13
13 13 13 12 13 13 13 13 13 13 13 13 13 13 13 13 13 13 12 12 12 12 12 12 13 13 13 13 12 12 12 12 12 12 12 12 13 13 14 14 14 14 14 14 14 14 14 14 14 14 14 14 14 14 14 14 14 14 14 14 14 14 14 13 13 13 13 13 13
13 13 13 12 13 13 13 13 13 13 13 13 13 13 13 13 13 12 12 12 12 12 12 13 13 13 13 12 12 12 12 12 12 12 12 12 12 13 13 14 14 14 14 14 14 14 14 14 14 14 14 14 14 14 14 14 14 14 14 13 13 13 13 13 13 13 13 13 13
12 12 12 12 13 13 13 13 13 13 13 13 13 13 13 12 12 12 12 12 12 12 12 12 12 12 12 12 12 12 12 12 12 12 12 12 12 13 13 14 14 14 14 14 14 14 14 14 14 14 14 14 14 14 14 14 14 13 13 13 13 13 13 13 13 13 13 13 13
12 12 12 12 12 12 12 13 13 13 13 13 13 13 12 12 12 12 12 12 12 12 12 12 12 12 12 12 12 12 12 12 12 12 12 12 12 13 14 14 14 14 14 14 14 14 14 14 14 14 14 14 14 14 13 13 13 13 13 13 13 13 13 13 13 13 13 13 13
12 12 12 12 12 12 12 13 13 13 13 12 13 12 12 12 12 12 12 12 12 12 12 12 12 12 12 12 12 12 12 12 12 12 12 12 13 13 14 14 14 14 14 14 14 14 14 14 14 14 14 13 13 13 13 13 13 13 13 13 13 13 13 13 13 13 13 13 13
12 12 12 12 12 12 12 13 13 12 12 12 12 12 12 12 12 12 12 12 11 11 12 12 12 12 12 12 12 11 11 12 12 12 12 12 13 13 14 14 14 14 14 14 14 14 14 14 14 13 13 13 13 13 13 13 13 13 13 13 13 13 13 13 13 13 13 13 13
11 11 11 11 11 12 13 12 12 12 12 12 12 12 12 12 12 12 12 12 11 11 11 11 12 12 12 11 11 11 11 11 11 11 12 12 13 14 14 14 14 14 14 14 14 14 14 13 13 13 13 13 13 13 13 13 13 13 13 13 13 12 12 12 13 13 13 13 13
11 11 11 11 11 12 13 12 12 12 12 12 12 12 12 12 12 12 12 11 11 11 11 11 11 12 11 11 11 11 11 11 11 11 11 12 13 14 14 14 14 14 14 14 13 13 13 13 13 12 13 13 13 13 13 13 13 13 13 13 13 12 12 12 12 13 13 13 13
11 11 11 11 12 12 12 12 12 12 12 12 12 11 11 11 11 11 11 11 11 11 11 11 11 11 11 11 11 11 11 11 11 11 11 12 13 14 14 14 14 14 13 13 13 13 12 12 12 12 12 13 13 13 13 13 13 13 13 12 12 12 12 12 12 13 13 13 13
11 11 11 11 12 12 12 12 12 12 12 11 11 11 11 11 11 11 11 11 11 11 11 11 11 11 11 11 11 11 11 11 11 11 11 12 14 14 14 14 14 13 13 13 12 12 12 12 13 13 13 13 13 13 13 13 13 13 13 12 12 12 12 12 12 13 13 13 13
11 11 11 11 12 12 12 12 12 11 11 11 11 11 11 11 11 11 11 11 11 11 11 11 11 11 11 11 11 11 11 11 11 11 12 13 14 14 14 14 13 13 12 12 12 12 12 13 13 13 13 13 13 13 13 13 13 13 13 13 12 12 12 12 12 13 13 13 13
11 11 11 11 12 12 12 12 11 11 11 11 11 11 11 11 11 11 11 11 11 11 11 11 11 11 11 11 11 11 11 11 12 12 13 14 14 14 14 13 13 12 12 12 12 12 13 13 13 13 13 13 13 13 13 13 13 13 13 13 13 13 13 12 12 13 13 13 13
11 10 10 12 12 12 12 12 12 11 11 11 11 11 11 11 11 11 11 11 11 11 11 11 11 11 11 11 11 11 11 11 12 13 14 14 14 13 13 13 12 12 12 12 12 13 13 13 13 13 13 13 13 12 12 12 12 12 12 13 13 13 13 13 13 13 13 13 13
11 10 11 12 12 12 12 12 12 11 11 11 11 11 11 11 11 11 11 11 11 11 11 11 11 11 11 11 11 11 11 12 12 13 13 13 13 13 12 12 12 12 12 12 12 13 13 13 13 13 13 13 12 12 12 12 12 12 12 12 12 12 13 13 13 13 12 12 12
11 11 11 12 12 12 12 12 12 11 11 11 11 11 11 11 11 11 11 11 11 11 11 11 11 11 11 11 11 11 12 12 12 13 13 13 12 12 12 12 12 12 12 13 13 12 12 12 12 12 12 12 12 12 11 11 11 12 12 12 12 12 12 12 12 12 12 12 12
11 11 12 12 12 12 12 12 12 11 11 11 11 11 11 11 11 11 11 11 11 11 11 11 11 11 11 11 11 11 12 12 12 12 12 12 12 12 12 12 12 12 13 13 12 12 12 12 12 12 12 11 11 11 11 11 11 11 12 12 12 12 12 12 12 12 12 12 12
12 12 12 12 12 12 12 12 12 11 11 11 11 11 11 11 11 11 11 11 11 11 11 11 11 11 11 11 11 12 12 12 12 12 12 12 12 12 12 12 12 12 13 12 12 12 12 12 11 11 11 11 11 11 11 11 11 11 11 11 11 11 11 11 11 11 11 11 11
12 12 12 12 12 12 12 12 12 11 11 11 11 11 11 11 11 11 11 11 11 11 11 11 11 11 11 11 11 11 12 12 12 12 12 12 12 12 12 12 12 12 12 12 12 12 11 11 11 11 11 11 11 12 12 12 11 11 11 11 11 11 11 11 11 11 11 11 11
12 12 12 12 12 12 12 12 11 11 11 11 11 11 11 11 11 11 11 11 11 11 11 11 11 11 11 11 11 11 11 12 12 12 12 12 12 12 12 12 12 12 12 12 11 11 11 11 11 11 11 12 12 12 12 12 11 11 11 11 11 11 11 11 11 11 11 11 11
12 12 12 12 12 12 12 12 11 11 11 11 11 11 11 11 11 11 11 11 11 11 11 11 11 11 11 11 11 11 11 12 12 12 12 12 12 12 12 12 12 12 12 11 11 11 11 11 11 11 12 12 12 12 12 12 12 11 11 11 11 11 11 11 11 11 11 11 11
12 12 12 12 12 12 12 11 11 11 11 11 11 11 11 11 11 11 11 11 11 11 11 11 11 11 11 11 11 11 11 12 12 12 12 12 12 12 12 12 12 12 11 11 11 12 12 11 11 11 12 12 12 12 12 12 12 12 12 11 11 11 11 11 11 11 11 11 10
12 12 12 12 12 12 11 11 11 11 11 11 11 11 11 11 11 11 11 11 11 11 11 11 11 11 11 11 11 11 11 12 11 11 11 12 12 12 12 11 11 11 11 12 12 12 12 12 12 12 12 12 11 11 11 12 12 12 12 12 11 11 11 10 10 10 10 10 10
12 12 12 12 12 12 11 11 11 11 11 11 11 11 11 11 11 11 11 11 11 11 11 11 11 11 11 11 11 11 11 11 11 11 11 11 11 11 11 11 11 11 12 12 12 12 13 13 13 12 12 12 12 11 11 11 11 11 12 12 12 11 11 10 10 10 10 10 10
12 12 12 12 12 12 11 11 11 11 11 11 11 11 11 11 11 11 11 11 11 11 11 11 11 11 11 11 11 11 11 11 11 11 11 11 11 11 11 11 11 11 11 12 12 12 12 12 13 13 13 13 12 12 11 11 11 11 11 11 11 11 11 11 10 10 9 10 10
12 12 12 12 12 11 11 11 11 11 11 11 11 11 11 11 11 11 11 11 11 11 11 11 11 10 10 10 10 11 11 11 11 11 11 11 11 11 11 11 11 11 11 11 12 12 12 12 13 13 13 13 13 12 12 11 11 11 11 11 11 11 11 11 10 10 10 10 9
12 12 12 12 11 11 11 11 11 11 11 11 11 11 11 11 11 11 11 11 11 11 11 10 10 10 10 10 10 11 11 11 10 10 10 11 11 11 11 10 10 10 10 11 11 12 12 12 12 12 13 13 13 12 12 12 11 11 11 11 11 11 11 11 10 10 10 9 9
12 12 12 11 11 11 11 11 11 11 11 11 11 11 11 11 11 11 11 11 10 10 10 10 10 10 10 10 11 11 10 10 10 10 10 10 10 10 10 10 10 10 10 11 11 11 11 12 12 12 12 13 13 12 12 12 12 12 11 11 11 11 11 11 10 10 10 9 9
11 11 11 11 11 11 11 11 11 11 11 11 11 11 11 10 10 10 10 10 10 10 10 10 10 10 10 11 11 10 10 10 10 10 10 10 10 10 10 9 9 9 10 10 11 11 11 11 11 12 12 12 12 12 12 12 12 12 12 11 11 11 11 10 10 10 9 9 8
11 11 11 11 11 11 11 11 11 11 11 11 10 10 10 10 10 10 10 10 10 10 10 10 10 10 10 10 10 10 10 10 10 10 10 10 9 9 9 9 9 9 10 10 10 11 11 11 11 11 11 11 12 12 12 12 12 12 12 11 11 10 10 10 9 9 8 8 8
11 11 11 11 11 11 11 11 11 10 10 10 10 10 10 10 10 10 10 10 10 10 10 10 10 10 10 10 10 10 9 9 9 9 9 9 9 9 9 8 8 9 9 10 10 10 10 11 11 11 11 11 11 12 12 12 11 11 11 10 10 9 9 9 8 8 8 8 8
11 11 11 10 10 10 10 10 10 10 10 10 10 10 10 10 10 10 10 10 10 10 10 10 10 10 10 10 10 9 9 9 9 9 9 9 9 9 8 8 8 8 9 9 10 10 10 10 10 11 11 11 11 11 11 11 11 11 10 9 8 8 8 7 7 7 7 7 7
10 10 10 10 10 10 10 10 10 10 10 10 10 10 10 10 10 10 10 10 10 10 10 10 10 10 10 9 9 9 9 8 8 8 8 8 8 8 8 8 7 8 8 9 9 10 10 10 10 11 11 11 11 11 11 11 10 10 9 8 7 7 7 6 6 6 6 6 6
10 10 10 10 10 10 10 10 10 9 9 9 9 9 9 9 9 10 10 10 10 10 10 10 10 9 9 9 9 8 8 8 8 8 8 8 8 8 7 7 7 7 8 8 9 9 10 10 10 11 11 11 11 10 10 10 9 8 7 7 6 6 6 6 5 5 5 6 6
10 10 10 10 10 10 9 9 9 9 9 9 9 9 9 9 9 9 10 10 10 10 9 9 9 9 9 8 8 8 8 8 8 7 7 8 8 7 7 7 7 7 7 8 9 9 10 10 11 11 11 11 11 10 9 8 8 7 6 6 6 5 5 5 5 5 5 5 5
10 10 10 9 9 9 9 9 9 9 9 9 9 9 9 9 9 9 10 10 9 9 9 9 9 8 8 8 8 8 7 7 7 7 7 7 7 7 7 7 7 7 7 8 8 9 10 10 10 11 11 11 10 9 9 8 7 6 6 6 5 5 5 5 5 5 5 5 5
9 9 9 9 9 9 9 9 9 9 9 9 9 9 9 9 9 9 9 9 9 9 9 9 8 8 8 8 8 7 7 7 7 7 7 7 7 7 7 7 7 6 7 8 8 9 9 10 10 10 10 10 10 9 8 7 7 6 5 5 5 5 4 4 4 4 5 5 5
9 9 9 9 9 9 9 9 9 9 9 9 9 9 9 9 9 9 9 9 9 9 8 8 8 8 8 8 7 7 7 7 7 7 6 6 6 7 7 7 7 6 7 7 8 8 9 9 9 9 9 9 9 8 8 7 6 5 5 4 4 4 4 4 4 4 4 4 4
9 9 9 9 9 9 8 8 8 8 8 8 8 8 8 8 8 8 8 8 8 8 8 8 8 8 8 7 7 7 7 6 6 6 6 6 6 7 7 7 7 7 7 7 8 8 8 8 8 8 8 8 8 8 7 7 6 5 4 4 4 4 4 4 4 4 4 4 4
Height
668 669 670 671 672 674 675 676 677 678 679 681 682 683 682 682 684 688 692 695 697 700 702 705 707 710 713 716 720 723 727 731 733 735 737 739 742 744 746 747 750 752 755 758 761 763 765 767 768 770 771 773 775 777 778 780 781 783 785 786 787 789 790 791 792 793 794 795 796
667 668 670 671 672 674 675 676 677 678 680 681 682 683 682 681 684 688 692 695 698 700 703 706 708 710 712 716 720 723 727 730 733 735 737 740 743 745 746 748 750 753 756 759 761 763 765 767 768 770 771 773 775 777 779 780 781 783 785 786 787 788 790 791 792 793 794 794 795
667 668 670 671 672 674 675 676 677 679 680 681 682 682 681 681 684 688 692 696 698 701 703 706 709 711 713 716 720 724 727 730 732 735 737 740 743 745 746 748 751 754 757 759 761 763 765 766 768 769 771 773 775 777 778 780 781 783 784 786 787 788 790 791 792 792 793 794 795
667 668 670 671 672 673 674 676 678 679 681 681 681 681 681 682 686 690 693 696 700 702 704 707 710 711 713 716 720 724 727 730 732 735 737 741 744 746 747 749 752 755 757 760 762 763 765 766 768 769 771 773 775 776 778 780 781 783 784 786 787 788 789 790 791 792 792 793 794
667 668 670 671 672 673 674 676 678 679 680 680 679 679 681 684 687 691 695 698 701 703 706 708 710 712 714 716 720 724 728 731 733 736 738 741 744 746 748 751 753 756 758 760 762 763 765 766 768 770 771 773 775 777 778 780 781 782 784 785 786 788 788 789 790 791 792 793 794
667 669 670 671 672 673 675 677 678 679 679 678 678 679 682 685 689 692 696 699 701 704 706 709 710 712 714 717 721 724 728 731 734 736 739 742 744 746 749 751 754 756 758 760 762 763 765 766 768 770 772 774 775 777 778 779 781 782 783 785 786 787 788 789 790 791 792 793 794
668 669 670 671 672 674 676 677 678 679 679 677 678 680 683 686 690 693 696 699 702 705 707 709 711 712 714 718 721 725 728 731 735 737 739 742 744 747 749 752 754 756 758 760 762 763 765 766 768 770 772 774 775 776 777 778 780 781 782 784 786 786 788 789 790 791 792 793 794
669 670 671 672 674 675 676 677 678 678 678 678 679 681 684 687 690 693 696 700 703 706 708 709 711 712 714 718 722 726 729 731 735 737 739 741 744 747 750 752 755 757 759 761 762 763 765 766 768 770 771 773 774 776 777 778 779 781 782 784 785 786 787 788 790 791 792 793 794
670 671 672 673 675 676 676 677 677 677 677 678 680 682 685 688 691 694 697 701 703 706 708 710 711 713 715 719 722 726 729 731 734 736 739 741 745 748 751 753 755 757 759 761 762 763 765 766 768 769 771 772 774 775 777 778 779 781 782 783 785 786 787 788 790 791 791 792 793
671 672 673 675 676 676 676 676 677 677 677 678 681 684 686 689 692 695 698 701 704 706 709 711 712 714 717 720 724 726 729 732 734 736 739 742 746 748 751 753 755 757 759 761 762 763 764 766 767 769 771 772 774 776 777 778 780 781 782 783 785 786 787 788 789 791 791 792 793
672 673 674 675 676 676 676 676 677 677 678 680 682 685 688 691 694 696 699 701 704 707 710 711 713 715 718 722 725 727 730 732 735 737 740 743 746 749 751 753 755 757 759 760 761 763 764 766 767 769 771 773 774 776 777 778 780 781 782 783 785 786 787 788 789 790 791 792 793
673 674 675 675 676 676 676 676 677 678 679 681 684 686 689 692 695 697 700 702 705 708 711 713 714 716 720 723 726 729 731 733 736 738 741 744 747 750 751 753 755 757 759 760 761 763 764 766 767 769 771 773 775 776 777 778 780 781 782 783 785 786 787 788 789 790 791 792 793
674 675 676 676 677 677 676 676 677 679 681 683 685 688 691 694 696 699 701 703 706 709 712 715 716 718 721 724 727 730 732 734 736 739 743 746 748 750 751 754 756 757 759 761 762 763 765 766 767 769 771 773 775 776 777 778 780 781 782 783 785 786 787 788 789 790 791 792 793
674 675 676 676 677 677 676 676 678 680 682 685 687 690 693 696 698 700 702 704 707 710 713 716 718 720 722 726 728 731 733 735 737 741 744 746 748 750 752 754 756 758 759 761 762 764 765 766 768 770 771 773 774 776 777 779 780 781 782 783 784 786 786 788 789 790 791 792 793
675 675 676 677 678 677 677 677 680 682 684 686 689 692 695 697 700 701 703 706 708 711 714 716 719 722 724 726 729 731 733 736 739 742 745 747 748 750 752 754 756 758 760 761 763 764 766 767 768 770 771 773 774 776 778 779 780 781 782 783 784 785 786 787 789 790 791 792 793
675 676 677 678 678 678 677 679 681 684 686 688 691 693 696 699 701 703 705 706 709 712 715 717 720 723 726 728 729 731 734 737 740 743 745 747 748 750 752 755 757 759 760 762 763 765 766 768 769 770 771 773 775 776 778 779 780 781 782 783 785 786 786 787 789 790 791 792 793
676 677 679 679 678 678 679 681 683 685 688 690 693 695 697 700 702 704 706 707 710 713 716 718 721 724 726 728 731 732 735 738 741 744 746 747 749 751 753 755 757 759 761 762 764 765 767 768 769 771 772 774 775 776 778 779 781 781 783 784 785 786 787 788 789 790 791 792 793
677 679 680 680 678 678 680 682 684 687 689 692 694 696 699 701 703 705 707 709 711 713 716 719 722 724 726 729 731 733 736 739 742 744 746 748 749 751 753 755 757 759 761 762 764 765 767 768 770 771 773 774 776 777 778 779 780 781 782 784 785 786 787 788 789 790 791 792 794
679 680 680 679 679 679 681 684 686 688 691 693 696 698 700 702 704 706 708 711 712 714 717 720 723 725 726 729 731 734 737 740 742 745 746 748 750 751 753 755 757 759 761 763 764 766 767 769 770 772 773 775 776 777 778 779 780 781 783 784 785 786 787 788 790 791 792 793 794
680 681 681 679 679 681 683 685 687 690 692 695 697 699 701 703 705 707 709 712 714 716 718 720 723 725 727 729 731 735 738 741 743 745 747 748 750 752 754 756 758 760 762 763 765 766 768 769 771 772 773 774 776 776 778 779 780 781 783 784 785 786 787 789 790 791 792 793 795
680 680 680 680 680 682 685 687 689 691 694 696 698 700 702 704 706 708 710 713 715 717 719 721 723 725 727 729 732 736 739 742 744 746 747 748 750 751 754 756 758 761 762 764 765 767 768 770 771 772 773 774 776 776 778 779 781 781 783 784 785 787 788 789 790 791 793 794 795
679 680 680 680 682 684 686 689 691 693 695 697 700 701 704 706 708 710 712 714 716 718 720 721 723 726 728 730 733 736 739 742 744 746 746 748 750 752 754 757 759 761 763 765 766 767 769 770 771 772 773 775 776 777 778 779 781 782 783 784 786 787 788 790 791 792 793 794 795
679 680 681 682 684 686 688 690 692 695 696 699 701 703 705 707 709 711 713 715 717 719 720 722 725 727 729 732 735 737 740 742 744 745 746 748 750 753 756 758 760 762 764 765 766 767 768 770 771 773 774 775 776 777 779 780 781 782 783 785 786 787 789 790 791 792 793 794 795
679 681 682 684 686 688 690 692 694 696 698 700 702 704 706 708 710 712 714 716 718 719 721 723 726 729 731 734 736 738 740 742 743 745 746 749 751 754 757 759 761 763 764 765 766 767 768 770 771 773 774 775 776 778 779 780 781 782 783 785 786 787 789 790 791 792 794 795 796
681 682 684 686 688 690 691 693 695 697 700 701 703 705 707 709 711 713 715 717 718 720 722 725 728 731 733 735 737 739 741 742 743 745 747 750 752 755 758 760 762 763 764 766 766 768 769 770 771 773 774 775 776 778 779 781 781 783 784 785 786 787 789 790 791 793 794 795 796
682 684 685 687 689 691 693 695 697 699 701 703 705 707 709 711 713 714 716 717 720 722 725 727 730 732 734 736 738 740 741 743 744 746 748 751 754 756 759 761 762 764 765 766 767 769 770 771 772 773 774 776 777 778 780 781 782 783 784 785 786 787 789 790 792 793 794 796 796
684 686 687 689 691 693 695 697 699 701 703 705 707 709 711 712 714 716 718 720 722 725 727 729 731 733 735 737 739 741 743 745 746 748 750 752 755 757 759 761 763 764 765 767 768 769 771 772 773 774 775 776 777 778 780 781 782 783 785 786 787 788 789 791 792 793 795 796 797
686 688 690 691 693 695 697 699 701 703 705 706 708 710 712 714 716 718 720 722 725 727 729 731 732 734 736 738 740 742 744 746 748 750 752 754 756 758 760 761 763 765 766 767 769 770 771 772 774 775 776 777 778 779 780 781 782 784 785 786 787 789 790 791 792 794 795 796 797
688 690 692 694 696 697 699 701 703 705 706 708 710 711 714 716 718 720 722 724 726 728 730 732 733 735 737 739 742 744 746 748 750 751 753 755 757 759 760 762 764 766 767 768 770 771 772 773 775 776 776 777 778 779 780 781 782 784 785 786 788 789 791 792 793 794 795 796 796
691 692 694 696 698 700 701 703 705 706 708 710 711 713 716 718 720 722 724 725 727 729 731 732 734 736 738 741 743 745 747 749 751 753 754 756 758 759 761 763 764 766 768 769 771 772 773 774 775 776 777 778 779 780 781 781 783 784 785 787 788 790 791 792 793 793 794 795 796
693 695 696 698 700 702 704 706 707 709 710 712 713 715 717 720 722 723 725 726 728 730 732 733 735 737 740 741 744 746 748 750 752 754 755 756 758 760 762 763 765 767 769 770 772 773 774 775 776 777 778 779 779 780 781 782 783 784 786 787 789 790 791 792 793 793 794 795 796
696 697 699 701 702 704 706 708 709 711 712 714 716 717 720 721 723 725 726 728 730 731 734 735 737 739 741 743 745 747 749 751 753 755 756 757 759 761 762 764 766 768 770 771 773 774 775 776 777 778 778 779 780 781 781 782 784 785 786 788 789 790 791 792 793 794 794 795 796
698 699 701 703 705 706 708 710 711 713 715 716 718 719 721 723 725 726 728 730 731 733 736 737 739 741 742 744 746 748 750 752 754 756 757 758 759 761 763 766 768 770 771 773 774 775 776 776 777 778 779 780 780 781 781 783 784 786 787 788 789 791 791 792 793 794 795 796 796
700 702 703 705 707 709 710 712 714 715 716 718 720 721 722 724 726 728 730 732 734 736 737 739 740 742 743 745 746 749 751 753 755 756 758 759 760 762 764 767 769 771 773 774 775 776 776 777 778 778 779 780 780 781 782 783 785 786 787 789 790 791 792 793 794 795 795 796 796
702 704 706 707 709 711 712 714 716 717 718 720 721 723 724 726 727 730 732 734 736 737 739 741 742 744 745 746 748 750 752 754 756 757 759 760 761 763 766 768 771 772 774 775 776 776 777 777 778 779 779 780 781 781 782 784 785 786 788 789 791 792 793 794 794 795 796 796 797
705 706 707 709 711 712 714 716 717 718 720 721 723 725 726 728 730 732 734 735 737 739 741 742 744 745 746 748 750 752 754 755 757 759 760 761 763 765 767 769 772 774 775 776 776 777 777 778 778 779 779 780 781 782 783 784 786 787 788 790 791 792 793 794 795 795 796 796 797
707 708 709 711 713 714 716 717 718 720 721 723 725 726 728 730 732 734 736 737 738 740 741 743 745 746 748 750 752 754 756 756 758 760 762 763 765 766 768 770 773 775 776 776 777 777 777 778 778 779 779 780 781 782 783 785 786 787 789 790 791 792 793 794 795 795 796 796 797
710 710 711 713 714 716 717 719 720 722 724 726 727 729 730 731 734 736 738 738 739 741 742 744 746 748 750 751 753 756 757 758 760 761 763 765 766 767 769 771 773 775 776 777 777 777 777 778 779 779 780 781 781 782 784 785 786 788 789 790 791 792 793 794 795 796 796 797 798
712 713 714 715 716 718 720 721 723 725 726 728 729 731 732 734 736 738 740 740 741 741 743 746 748 750 751 753 755 757 759 761 762 763 765 766 768 769 770 771 773 775 776 777 777 777 778 779 779 780 781 781 782 783 784 785 786 788 789 790 791 792 793 794 795 796 796 797 798
715 716 716 718 719 721 722 724 726 727 729 730 731 733 735 736 738 739 741 741 742 744 745 747 750 751 753 755 756 759 761 763 764 766 766 768 769 770 771 772 773 775 776 777 777 778 778 779 780 781 781 782 783 784 785 786 786 788 789 790 791 792 793 795 796 796 797 798 799
717 718 719 721 721 722 724 726 728 730 731 732 734 736 737 738 739 740 742 743 745 746 748 750 751 753 755 756 758 760 762 764 766 767 768 769 770 771 772 772 773 775 776 777 778 778 779 780 781 781 782 783 784 784 785 786 786 787 789 790 791 792 793 795 796 797 797 798 799
Wind_Speed
23 22 23 24 24 24 24 24 23 24 25 28 29 25 23 30 32 31 30 30 29 29 30 31 32 34 36 36 34 32 31 31 31 30 29 29 29 30 31 31 31 31 31 31 30 29 27 27 26 26 25 26 25 24 23 23 23 23 23 23 22 21 20 20 19 18 17 15 14
22 22 23 24 23 23 23 23 24 25 27 29 27 25 25 30 31 30 30 30 30 30 30 31 33 36 37 36 34 33 33 32 32 31 30 29 29 30 32 32 32 31 31 31 30 28 27 27 26 26 25 26 25 24 23 23 23 23 23 22 22 22 21 20 19 18 17 16 15
21 22 23 23 22 22 22 23 24 26 28 28 25 24 26 30 31 30 30 30 31 31 32 32 34 37 38 36 35 34 34 34 33 32 31 30 29 30 31 32 32 31 31 30 29 28 27 27 26 26 25 25 25 24 23 23 23 23 23 22 22 22 21 19 18 18 17 16 15
21 22 23 22 22 22 22 23 25 27 28 25 25 26 28 30 30 30 30 31 32 32 33 34 35 36 37 37 37 36 35 34 33 32 31 31 30 31 31 32 32 31 30 30 28 28 27 27 26 25 25 25 25 24 24 24 23 23 22 22 22 22 21 20 19 18 17 16 15
21 22 22 22 22 23 24 24 26 27 26 24 27 29 29 30 31 31 31 31 31 32 34 35 35 36 37 39 38 38 36 35 33 32 32 31 31 31 32 32 32 31 30 29 28 27 27 26 25 25 25 25 25 24 24 24 23 23 23 23 22 22 21 21 20 19 17 16 15
20 21 21 21 23 24 24 24 26 25 25 26 30 31 31 30 31 32 32 31 32 34 35 36 36 37 38 40 39 38 36 35 33 32 32 32 32 32 32 32 31 31 30 29 28 28 27 26 25 25 25 25 24 24 24 25 25 24 24 23 23 22 22 21 20 18 17 16 14
19 20 20 22 24 24 23 23 25 24 25 29 33 34 33 32 33 34 34 33 34 35 36 36 38 39 40 40 39 37 36 35 34 32 32 32 32 32 32 32 31 30 29 29 28 27 27 26 25 25 25 25 25 25 25 26 26 26 25 24 23 22 21 20 19 18 16 15 14
17 18 21 24 24 23 22 23 25 25 27 30 33 35 35 35 36 36 36 36 36 36 36 37 39 41 41 40 38 37 36 35 34 33 32 32 32 32 32 31 30 30 29 29 28 27 26 25 25 25 26 26 26 26 26 27 27 27 26 25 23 22 21 20 18 17 15 14 13
15 18 22 25 22 20 20 23 25 27 29 32 34 36 37 37 38 38 37 36 36 36 37 38 40 41 41 39 38 37 36 35 34 33 33 32 31 31 31 31 30 29 28 28 27 26 26 26 26 26 27 27 27 27 27 27 27 27 26 25 23 22 20 19 17 16 14 13 12
15 20 24 24 17 16 19 24 26 29 32 34 36 37 38 38 38 37 36 35 37 37 38 39 41 41 40 38 37 36 35 34 33 33 34 33 31 31 31 30 30 29 28 27 26 26 26 26 27 27 27 28 28 27 27 27 26 26 25 24 23 21 19 18 16 15 13 12 11
16 21 24 23 13 13 21 26 28 31 33 35 37 38 38 38 37 36 36 37 38 38 39 40 41 40 39 36 35 35 34 34 34 34 33 32 31 31 31 30 29 28 27 26 26 26 27 27 28 28 28 28 27 27 26 26 26 25 24 23 21 20 18 16 15 13 12 11 10
17 21 22 20 11 13 24 28 30 32 34 36 37 37 37 36 36 37 38 39 40 40 39 40 40 40 38 35 34 34 34 34 34 33 32 30 30 30 30 29 28 27 26 26 27 27 28 29 30 29 29 28 27 26 26 25 25 24 23 22 20 19 18 16 14 13 12 11 11
19 22 21 17 11 16 26 30 31 32 34 35 36 36 35 36 37 38 39 40 41 39 38 39 39 39 37 35 34 33 33 33 33 32 30 29 30 30 29 28 27 26 26 26 27 28 29 30 30 30 29 28 26 25 24 24 23 23 22 21 19 18 17 15 14 13 12 12 11
21 23 20 14 12 19 28 31 31 32 33 34 35 35 35 36 38 38 39 40 39 39 38 37 37 36 36 35 35 34 33 33 32 30 29 29 30 29 28 27 27 26 26 27 28 29 30 30 30 29 28 27 26 24 23 22 22 21 20 19 19 18 16 15 14 13 13 12 12
20 21 18 11 12 22 30 31 31 32 33 34 34 34 35 35 36 37 38 39 39 38 38 36 35 35 36 36 35 34 32 31 30 29 29 29 29 28 28 27 27 27 27 28 28 29 29 29 29 28 28 27 25 23 22 21 20 19 19 18 18 17 16 15 14 13 13 13 13
18 18 15 10 16 26 30 31 30 31 32 33 34 34 35 35 36 37 38 38 38 38 37 36 35 35 35 35 34 33 32 30 29 29 29 29 28 28 28 28 28 28 28 28 29 29 28 28 28 27 26 26 24 22 21 20 19 19 18 17 17 16 16 15 14 14 13 13 13
16 15 13 11 21 29 31 30 30 31 32 33 34 34 34 35 35 36 37 37 37 37 37 36 36 35 35 34 33 32 31 29 29 28 28 28 28 28 29 29 29 29 29 29 29 28 27 27 26 26 25 24 23 22 21 20 19 18 18 17 17 16 15 15 14 14 14 14 13
13 14 13 15 25 30 31 31 31 32 32 33 33 33 34 34 34 35 36 37 38 37 36 36 36 36 35 34 33 31 30 29 28 27 27 28 29 29 30 30 29 29 29 28 28 27 27 26 25 24 24 23 22 22 21 20 20 19 18 17 17 16 15 15 15 14 14 14 13
12 13 14 21 28 31 32 32 32 32 33 33 33 33 33 34 34 35 36 37 38 38 37 36 36 35 35 34 33 31 29 28 28 28 28 29 29 30 30 30 29 29 28 28 27 27 26 25 25 24 24 23 23 22 21 21 20 19 18 18 17 16 16 15 15 14 14 13 12
15 16 19 26 31 33 33 33 33 33 33 33 33 33 34 34 35 36 36 37 38 38 38 37 36 35 34 34 33 31 29 28 28 29 29 29 30 30 30 30 29 28 28 27 27 26 26 25 25 25 24 24 24 23 22 21 20 20 19 18 17 17 16 16 15 14 13 12 12
20 21 24 29 32 33 33 33 34 33 33 33 33 34 34 35 36 37 37 37 38 38 37 37 36 35 34 34 32 31 29 28 29 29 29 30 30 30 30 29 28 28 27 27 27 26 26 26 25 25 25 24 24 23 22 21 21 20 19 19 18 17 16 16 15 14 13 13 12
24 25 28 31 33 33 34 34 34 34 34 34 34 35 35 36 36 37 37 38 38 37 37 36 35 35 34 33 32 31 29 29 29 29 30 30 30 29 29 28 28 28 27 27 27 27 26 26 26 25 25 24 23 22 22 21 21 20 20 19 18 17 16 15 15 14 14 13 12
27 29 30 32 33 34 34 34 34 34 34 34 34 35 35 36 37 38 38 37 37 36 36 35 34 33 33 32 32 31 30 29 29 29 29 30 29 29 28 28 28 28 28 28 27 27 27 26 26 25 24 23 23 22 21 21 21 20 20 19 19 17 16 15 15 14 13 13 12
29 30 31 32 33 34 34 34 34 34 34 34 35 35 36 37 37 37 37 36 36 35 34 33 33 33 33 32 32 32 31 31 30 30 30 30 30 29 29 28 28 28 28 28 27 27 27 27 26 25 24 23 22 22 21 20 20 20 20 19 19 18 17 15 14 14 13 12 12
30 31 32 33 33 34 34 34 34 34 34 35 35 36 36 37 37 36 36 35 34 34 34 34 34 34 33 33 32 32 31 31 31 31 31 30 30 29 29 28 28 28 28 27 26 26 25 25 25 24 24 23 22 21 21 20 20 20 19 19 18 18 17 15 14 13 13 12 11
31 32 32 33 34 34 34 34 34 35 35 35 36 36 36 36 36 36 35 35 34 35 35 34 34 34 34 33 32 31 31 30 31 31 31 30 29 29 28 27 27 27 27 26 25 24 24 24 23 23 23 22 22 22 21 20 20 19 19 18 18 17 16 15 14 14 13 12 12
30 31 33 33 34 34 34 35 35 35 35 35 36 35 35 36 35 35 35 35 35 35 35 34 34 34 33 32 32 31 30 30 30 30 30 30 29 29 28 27 27 27 26 25 24 24 23 23 22 22 21 22 22 22 21 21 20 19 19 18 17 15 14 14 14 14 14 13 12
30 31 32 33 33 33 34 35 35 34 35 35 35 35 35 35 35 35 35 35 35 35 34 33 33 33 32 32 32 31 30 30 29 29 29 29 29 29 28 27 27 26 25 25 24 23 22 22 21 21 21 21 21 21 21 21 20 19 18 17 16 14 13 13 14 14 14 14 13
31 32 32 32 31 32 33 33 33 34 34 35 35 36 35 35 35 35 34 34 34 33 31 31 31 31 31 31 31 30 30 29 29 28 29 29 29 29 28 27 26 26 25 24 23 23 22 21 21 20 20 20 20 20 20 20 19 19 18 17 15 14 13 13 14 15 15 15 14
30 31 31 30 31 31 32 32 33 34 34 35 35 35 35 34 33 33 33 32 31 30 30 30 30 30 30 31 31 30 29 28 28 28 29 29 29 28 28 27 26 25 24 23 22 22 21 21 20 19 19 19 19 19 19 19 18 18 17 16 14 13 13 13 15 15 16 16 15
30 30 30 30 30 31 31 31 32 33 34 34 35 34 33 32 31 30 30 30 30 30 30 30 31 30 31 31 30 29 29 28 28 28 28 29 29 29 28 27 26 25 23 22 22 21 20 20 19 19 18 18 18 18 18 18 17 17 16 15 14 14 14 14 15 16 16 16 16
30 31 31 31 31 30 31 31 32 33 33 33 33 33 32 31 30 30 30 31 31 31 31 31 31 31 31 30 30 29 29 28 28 28 28 29 29 29 28 27 25 24 22 21 21 20 20 19 18 18 17 17 17 17 17 17 17 16 16 15 15 15 15 16 16 17 16 16 15
31 31 31 31 30 30 31 31 32 32 33 33 32 32 32 31 31 31 30 31 31 31 31 31 31 31 30 30 29 29 28 27 27 28 28 29 29 29 28 26 24 23 22 21 20 20 19 18 17 17 16 16 16 16 17 17 16 16 16 15 15 15 16 16 17 16 15 14 13
31 31 31 31 31 31 31 31 32 32 32 32 32 32 32 32 31 30 30 30 30 30 30 30 30 30 30 30 29 29 28 27 27 28 28 29 29 29 28 26 24 22 21 20 19 19 18 17 16 16 15 16 16 17 17 17 16 16 16 16 16 16 16 16 16 15 14 13 11
31 31 31 31 31 31 31 31 31 31 31 31 31 31 32 32 31 31 30 30 30 30 29 29 29 29 29 29 29 28 28 28 28 28 28 28 29 28 27 26 23 21 20 19 18 18 17 16 15 15 15 16 17 17 17 17 17 17 18 18 18 17 17 16 14 13 12 11 10
32 31 31 31 30 31 31 31 31 30 30 30 30 30 31 31 31 31 31 31 31 31 30 29 29 29 28 28 27 27 28 28 28 28 27 28 28 28 27 25 23 21 19 18 18 17 16 15 15 14 15 16 17 18 18 18 19 19 19 19 19 18 17 15 14 12 11 10 9
31 31 31 31 30 30 30 30 30 30 30 29 30 30 30 30 30 30 30 31 31 30 30 29 29 28 28 27 27 26 27 27 28 28 27 27 27 28 27 26 23 20 18 18 17 16 15 14 14 14 15 16 17 18 19 19 20 21 21 20 19 18 17 16 14 13 11 10 9
29 30 31 30 30 30 30 30 30 30 29 29 29 29 30 30 29 28 28 29 30 30 30 29 29 28 28 28 27 26 25 25 26 27 27 26 27 27 27 26 23 20 18 17 16 15 15 14 13 13 14 16 17 19 19 20 21 22 21 21 19 18 17 16 15 13 12 11 10
29 30 30 30 30 30 29 29 29 29 29 29 28 28 29 29 28 27 27 28 29 30 30 30 29 28 28 28 27 26 25 24 24 25 25 26 25 26 26 25 23 20 18 16 15 15 14 13 13 13 13 14 16 18 19 21 22 22 21 20 19 18 17 16 15 14 13 12 11
29 29 29 29 29 29 29 28 28 27 27 28 27 27 27 27 27 27 28 28 29 30 30 30 29 28 27 27 27 26 24 23 22 23 23 24 24 24 24 24 23 20 17 15 14 14 13 13 13 13 13 13 15 17 18 20 21 21 20 19 19 18 17 16 15 15 14 13 12
29 29 29 28 28 28 28 28 27 26 26 26 26 25 26 26 27 28 28 28 28 28 28 28 28 27 27 26 26 25 24 23 22 22 22 23 22 22 23 23 22 20 17 15 13 13 13 13 13 12 13 13 15 16 17 18 20 20 19 18 18 18 17 16 16 15 14 14 13
Wind_Direction
178 176 174 174 177 178 180 182 185 186 184 181 179 171 156 146 143 144 145 145 143 143 144 144 144 145 145 146 147 148 148 149 149 148 146 145 146 147 147 146 146 147 148 149 151 152 152 152 151 151 152 152 153 154 156 157 157 158 158 159 159 159 158 157 158 159 159 158 157
173 173 173 174 176 178 179 181 183 185 185 183 179 167 150 142 140 141 143 144 144 143 142 143 144 144 144 145 145 146 147 147 147 146 144 144 145 146 146 145 146 147 148 150 151 151 152 152 151 150 150 152 153 154 155 156 156 157 157 159 159 159 158 157 157 158 159 159 162
168 170 171 172 173 175 177 178 181 184 185 183 176 160 144 138 138 139 141 142 143 142 141 142 142 143 143 143 144 145 145 145 145 143 143 143 145 146 146 145 146 148 149 150 151 151 152 151 150 150 150 152 153 153 154 155 156 156 157 157 158 158 157 156 157 158 159 160 166
165 169 171 171 172 174 175 177 182 184 182 175 161 147 138 135 136 137 139 140 141 141 141 141 141 141 141 142 143 144 144 144 143 142 142 143 145 146 146 146 147 149 150 150 151 151 151 150 149 150 151 152 153 153 153 154 155 154 155 155 156 156 155 155 156 158 160 163 169
164 168 170 171 172 173 175 180 184 184 175 157 144 137 133 133 135 136 136 138 139 141 142 141 140 140 140 141 142 142 143 142 142 142 142 143 145 145 146 147 148 149 149 150 150 150 150 149 149 149 150 152 152 152 152 152 152 151 150 152 153 154 154 154 157 161 165 168 173
162 167 171 172 172 173 177 183 184 178 164 146 138 135 133 133 134 136 137 137 139 140 140 140 139 138 138 139 140 141 141 141 142 142 143 144 145 146 147 148 148 149 149 150 150 149 149 148 147 148 150 150 150 151 151 150 148 147 147 148 151 153 155 156 160 165 169 172 175
163 168 171 171 170 173 180 184 178 167 152 141 139 137 135 134 135 136 137 136 137 138 139 138 137 137 137 138 138 139 140 141 141 142 142 143 144 146 147 148 148 148 149 149 149 149 148 147 147 148 148 149 148 148 149 148 147 145 145 146 150 154 157 160 164 168 171 173 175
166 170 170 168 170 177 182 177 167 155 144 137 135 135 135 134 135 135 135 135 136 137 138 137 137 136 136 137 137 138 139 140 141 141 142 143 144 146 147 148 148 148 148 148 148 148 147 147 147 147 147 146 145 145 147 148 148 147 147 147 151 155 160 163 166 170 171 172 173
165 167 167 167 174 182 180 166 155 145 137 133 132 133 134 134 134 134 134 135 137 137 137 136 136 136 136 136 137 138 139 139 140 141 141 142 144 147 148 147 147 147 148 148 148 147 147 146 146 145 145 144 143 144 147 150 150 150 150 151 153 156 160 164 167 170 171 172 170
159 162 166 171 183 184 168 153 143 137 133 131 130 131 132 133 133 134 134 135 136 137 136 136 136 135 135 135 136 137 138 139 140 141 142 143 146 148 148 147 147 147 147 147 147 147 146 144 142 142 142 143 144 145 149 153 154 154 154 154 155 156 159 163 166 169 170 170 167
159 164 171 182 195 175 153 141 134 132 131 130 130 130 131 132 132 133 134 135 135 135 136 136 136 135 135 135 136 137 138 139 140 141 142 145 149 149 148 147 147 146 146 146 146 145 144 141 140 139 141 143 145 149 152 156 157 157 156 156 157 158 158 160 164 166 166 165 161
164 169 180 194 199 159 140 132 129 129 129 129 129 129 130 131 132 133 134 134 133 134 135 136 137 136 135 135 136 137 138 139 140 141 143 147 150 149 147 146 146 145 145 145 145 143 142 140 139 140 141 144 148 151 155 158 159 158 156 156 158 158 157 158 161 162 161 158 154
168 173 185 203 192 146 132 128 127 127 127 128 128 129 130 132 133 134 134 133 133 133 134 135 135 135 135 136 137 137 138 139 140 142 145 149 148 147 145 145 145 145 144 144 144 143 141 141 142 143 144 146 150 154 157 160 160 158 156 156 156 156 156 157 159 158 156 153 150
170 177 190 209 180 140 128 125 125 126 127 127 128 129 130 132 134 134 134 133 132 132 133 133 133 134 135 136 137 137 137 138 140 143 146 148 146 144 143 144 144 144 143 143 144 143 143 143 145 147 148 149 151 154 157 159 159 158 157 156 154 154 154 156 156 155 153 151 150
173 185 199 213 165 135 126 125 125 126 127 127 129 130 131 132 134 134 134 133 132 132 132 131 131 132 134 135 136 136 136 138 141 144 146 145 143 142 142 143 144 143 143 142 144 145 146 147 149 151 151 152 152 153 155 156 156 156 156 155 155 154 154 154 154 154 153 153 153
179 195 208 203 147 131 126 125 126 127 128 129 130 131 132 133 134 133 133 132 132 132 132 131 131 131 132 133 133 134 135 138 141 143 143 141 140 140 142 142 142 142 142 143 145 147 149 151 153 154 154 153 152 151 151 151 151 151 151 152 153 154 153 153 154 154 154 156 157
185 202 209 181 138 129 127 127 127 128 130 131 132 133 134 134 133 133 133 132 132 131 131 131 131 132 132 132 132 133 135 138 140 141 140 139 138 140 140 140 141 142 143 144 146 148 150 152 153 154 153 151 149 148 147 146 146 146 147 149 150 151 152 152 154 155 157 159 161
188 203 196 157 133 127 126 127 128 129 130 131 132 134 134 134 133 132 132 132 132 131 131 131 132 132 132 132 133 133 135 137 139 139 138 137 137 138 139 139 140 142 144 146 148 149 149 150 150 150 149 146 144 143 143 143 143 144 146 148 149 149 151 152 154 156 158 160 159
183 193 172 140 129 126 127 127 128 129 130 132 132 133 133 132 132 131 131 131 131 131 131 131 131 131 132 132 132 132 134 136 137 136 136 136 136 137 137 138 140 142 145 147 149 149 148 147 146 144 142 141 140 141 142 143 144 145 146 148 148 149 151 152 154 156 156 155 152
174 172 152 133 128 127 127 128 129 129 130 131 131 131 131 131 131 131 130 131 131 130 130 130 129 129 129 129 129 130 132 133 134 134 133 134 134 135 135 137 140 143 146 147 147 145 144 142 141 141 141 141 142 143 145 145 146 147 147 147 148 150 151 153 153 153 151 148 147
163 153 138 129 127 127 128 129 129 129 129 129 129 130 129 129 129 129 130 130 130 129 129 128 128 127 127 127 128 128 130 131 131 131 131 132 132 133 135 138 141 143 144 144 142 140 139 139 140 142 143 145 146 147 147 148 148 147 147 147 148 150 152 152 151 149 146 145 147
147 137 129 126 126 126 127 128 129 128 128 128 128 128 128 128 128 128 129 129 129 128 127 127 127 127 127 127 127 128 129 130 130 130 130 130 131 134 137 140 141 141 140 139 138 138 139 140 142 145 147 147 148 149 150 150 149 148 148 148 148 149 149 150 148 147 147 149 153
132 127 124 124 125 126 127 127 127 127 127 127 127 127 127 126 127 127 128 128 127 127 126 126 126 126 127 127 128 128 128 129 129 129 130 130 132 135 138 140 141 139 138 138 139 141 142 143 145 147 149 148 149 150 151 152 152 151 150 149 148 147 146 146 146 148 150 155 157
124 123 122 124 125 126 126 125 125 126 126 126 126 126 125 125 126 126 126 126 126 125 124 124 125 126 127 127 127 128 128 128 127 128 129 131 133 135 137 139 139 139 140 142 145 147 147 147 147 148 149 149 150 151 153 153 154 153 153 151 149 147 145 145 146 150 153 155 155
120 121 121 122 124 124 124 123 124 124 125 125 125 124 124 125 125 125 125 124 124 123 123 124 125 126 126 127 127 128 128 128 128 127 128 130 132 135 136 137 139 141 143 146 149 151 152 152 151 150 150 151 151 152 152 153 153 154 153 152 150 148 146 146 147 150 151 150 149
119 120 121 121 122 122 122 122 123 124 124 124 124 124 124 125 125 124 124 122 122 122 123 124 125 125 126 127 127 127 128 128 128 128 129 130 132 134 136 137 140 142 145 148 151 153 154 155 156 155 154 153 153 152 151 151 152 153 152 152 150 149 147 147 148 149 148 146 146
117 118 120 121 121 122 122 121 123 123 123 123 123 124 124 124 124 123 122 122 122 123 124 125 125 125 126 126 127 126 126 127 128 129 130 132 133 135 136 138 140 142 145 149 152 153 155 156 158 159 158 156 154 153 152 152 152 152 152 150 149 148 148 150 151 150 148 147 149
116 117 119 119 119 120 120 122 122 122 122 123 123 123 123 123 122 122 122 122 123 124 124 124 125 125 125 125 126 126 127 127 128 130 132 134 136 137 137 138 139 141 145 149 151 153 155 157 159 160 160 158 156 155 154 153 153 151 150 148 147 149 152 155 156 155 152 151 153
116 117 118 117 117 118 119 119 119 120 121 122 122 122 121 121 121 122 122 123 123 123 123 124 125 125 125 125 126 127 127 128 129 131 133 135 136 137 137 137 137 140 144 149 151 154 156 158 159 161 161 160 158 156 155 153 152 150 149 148 148 152 156 159 159 158 157 156 156
114 115 115 114 115 116 117 117 118 119 120 121 121 120 120 120 120 121 122 122 123 123 124 125 124 124 125 126 126 126 127 128 130 133 135 135 135 135 135 135 136 139 144 149 152 155 157 159 160 161 162 162 160 157 154 152 151 150 149 149 152 156 160 163 163 162 161 160 159
111 112 112 112 113 114 115 116 116 117 118 119 119 118 118 118 118 119 120 120 121 122 123 123 123 124 124 125 126 126 126 128 131 133 135 135 133 133 133 134 135 139 145 150 154 156 158 159 160 161 161 160 158 155 152 151 150 150 150 152 156 160 163 164 165 164 163 162 162
108 109 109 110 111 112 112 113 114 115 116 116 116 116 116 116 116 116 117 118 119 120 120 121 121 122 122 122 123 124 126 128 130 132 134 134 133 132 132 133 136 140 146 151 154 156 157 158 159 159 158 158 155 152 150 149 149 150 152 155 159 163 164 163 163 162 162 163 164
106 106 107 107 108 109 110 111 112 114 114 114 113 112 112 112 112 112 113 115 116 118 119 119 119 119 119 120 121 122 124 127 129 132 133 134 133 132 132 132 135 140 147 151 153 155 156 156 156 156 155 155 153 150 148 147 147 150 153 156 159 160 160 159 159 159 161 163 166
104 104 104 104 104 106 107 109 110 111 111 111 110 110 110 110 110 110 112 113 115 116 117 117 117 118 119 120 121 122 123 126 128 130 132 133 134 133 131 131 134 140 147 151 153 153 153 153 153 153 153 152 151 148 147 146 148 151 154 155 154 154 154 154 155 157 161 165 168
102 102 102 102 103 104 105 106 107 107 107 107 107 108 108 109 109 110 112 114 114 114 114 114 115 116 117 119 121 123 124 125 127 129 131 133 133 132 131 130 134 140 146 150 151 151 150 150 150 151 151 150 149 148 148 148 150 152 153 151 148 146 146 148 150 155 162 168 169
102 101 101 101 101 102 103 103 103 103 104 104 105 105 106 107 108 110 113 114 114 113 112 112 113 114 114 115 118 121 123 125 126 128 130 133 133 132 131 131 134 140 145 148 149 149 148 147 147 148 149 149 148 149 149 150 149 149 148 145 142 142 143 144 147 152 160 166 167
99 100 100 100 99 99 100 100 100 100 101 102 103 104 104 105 107 110 112 114 113 112 111 112 111 112 112 113 115 118 122 126 127 128 130 133 134 133 132 133 135 140 144 147 147 147 146 145 146 148 149 149 149 150 150 149 147 146 144 142 142 143 144 145 146 151 156 161 163
97 98 98 97 97 97 97 98 98 98 99 100 101 102 104 105 107 109 111 112 112 110 110 110 109 110 112 113 114 116 120 124 127 129 131 133 135 135 135 135 137 140 145 147 147 145 144 144 146 150 152 151 152 152 151 149 147 146 145 145 145 147 147 147 148 150 155 159 163
94 97 97 96 96 97 97 97 97 98 98 99 99 101 103 105 106 108 109 110 110 110 109 108 108 110 111 113 113 114 116 121 126 129 132 133 135 137 137 137 138 140 144 146 146 145 144 145 148 151 155 156 155 154 153 151 150 149 148 148 148 149 150 150 151 152 154 159 165
93 95 95 95 96 96 96 96 96 97 99 100 101 102 103 105 106 107 107 107 107 108 108 108 109 110 111 112 112 112 114 118 123 127 131 133 136 138 138 138 138 139 141 144 144 144 145 147 149 153 157 160 159 157 156 154 152 150 149 150 149 149 151 153 155 155 156 160 166
93 93 93 93 93 94 94 95 96 97 100 101 102 104 106 107 107 107 107 107 107 107 108 108 109 110 111 112 112 113 115 117 121 126 130 134 136 137 138 138 138 138 139 141 143 145 146 149 152 157 161 164 162 161 159 157 154 151 150 152 153 153 153 155 158 159 160 162 167